Private Wetterstation Kalkriese

Lat.: 52° 24' 26" Nord • Long.: 8° 04' 41" Ost • Höhe: 57 m ü. NN
Montag, 24. Juni 2024 • 06:03:58 (UTC+2)

Tagesübersicht
Montag, 24. Juni 2024


Werte bei Min., Max., etc. sind Tagesdaten (Beginn 00:00 Uhr), Diagramme zeigen den Verlauf der letzten 24 Stunden.
Wert in eckigen Klammern Min., Max., etc. der letzten 24 Std.

Letzte / Nächste Aktualisierung: 05:15 / 06:15

Außentemperatur (2 m ü. Erdboden)

 

Bodentemperatur (5 cm ü. Erdboden)

Minimum: 11,8 °C • 04:50 [ 11,8 °C • 04:50 ]   Minimum: 7,2 °C • 04:35 [ 7,2 °C • 04:35 ]
Maximum: 15,3 °C • 00:00 [ 24,5 °C • 17:05 ]   Maximum: 10,6 °C • 00:00 [ 37,8 °C • 14:15 ]
Durchschnitt: 13,2 °C [ 18,1 °C ]   Durchschnitt: 8,6 °C [ 18,1 °C ]
 
mini_currentt   mini_currentt2

Taupunkt

 

Windchill

Minimum: 11,0 °C • 04:50 [ 11,0 °C • 04:50 ]   Minimum: 11,8 °C • 04:50 [ 11,8 °C • 04:50 ]
Maximum: 13,6 °C • 00:00 [ 15,7 °C • 14:10 ]   Maximum: 15,2 °C • 00:00 [ 24,4 °C • 17:05 ]
Durchschnitt: 12,3 °C [ 13,6 °C ]   Durchschnitt: 13,2 °C [ 18,1 °C ]
 
mini_currenttp   mini_currentwc

Außenluftfeuchtigkeit

 

Luftdruck

Minimum: 90 % • 00:00 [ 51 % • 17:10 ]   Minimum: 1018,6 hPa • 03:15 [ 1015,8 hPa • 06:00 ]
Maximum: 96 % • 04:55 [ 96 % • 04:55 ]   Maximum: 1019,0 hPa • 00:25 [ 1019,0 hPa • 00:25 ]
Durchschnitt: 94 %   Durchschnitt: 1018,8 hPa
 
mini_currentf   mini_currentd

Niederschlag

 

 

heutiger Tag: 0,0 l/m²   akt. Woche: 0,0 l/m²
letzten 24 Std.: 0,0 l/m²   akt. Monat: 51,8 l/m²
Regendauer Tag: 0 Minuten   akt. Jahr: 444,4 l/m²
 
mini_currentr   mini_currentxt

Windgeschwindigkeit

 

Windböen

Maximum: 0,5 km/h • 2 Bft • N • 05:15 [ 11,3 km/h • 12:40 ]   Maximum: 3,2 km/h • 4 Bft • W-SW • 05:15
Durchschnitt: 0,0 km/h • 1 Bft   Durchschnitt: 0,1 km/h • 1 Bft
Dom. Windrichtung: N   Dom. Windrichtung: N
 
mini_currentw   mini_currentwb
 
mini_currentwr   mini_currentwdg

Windrichtung • Windstärke • Windböen

 

 

ddis_f_current   ddis_current
 
windbft_current    

Wolkenuntergrenze (berechnet)

 

Theta-E / Äquivalenttemperatur

mini_currentcl   mini_currentt7


Wetterdaten Tagesverlauf

Stundenwerte akt. Tag
 
Uhrzeit Aussen-
temp.
+2 m
Boden-
temp.
+5 cm
ThetaE
 
 
Luft-
feuchte
 
Luft-
druck
 
Wind-
geschw.
 
Wind-
richtung
 
Solar
 
 
UV-I
 
 
Wolken-
untergrenze
 
Schnee-
fallgrenze
 
00:00 14,9 °C 10,6 °C 38,9 °C 91 % 1018,8 hPa 0,0 km/h N 0 W/m² 0,0 204,0 m 2410,0 m
01:00 14,1 °C 9,4 °C 37,4 °C 93 % 1018,9 hPa 0,0 km/h N 0 W/m² 0,0 140,0 m 2300,0 m
02:00 13,5 °C 8,9 °C 36,2 °C 94 % 1018,8 hPa 0,0 km/h N 0 W/m² 0,0 119,0 m 2220,0 m
03:00 12,8 °C 8,3 °C 34,0 °C 94 % 1018,8 hPa 0,0 km/h N 0 W/m² 0,0 118,0 m 2070,0 m
04:00 12,4 °C 7,8 °C 33,3 °C 95 % 1018,6 hPa 0,0 km/h N 0 W/m² 0,0 97,0 m 2020,0 m
05:00 12,0 °C 7,8 °C 32,4 °C 96 % 1018,8 hPa 0,0 km/h N 0 W/m² 0,0 97,0 m 1950,0 m
06:00 -- °C -- °C -- °C -- % -- hPa -- km/h -- -- W/m² -- -- m -- m
07:00 -- °C -- °C -- °C -- % -- hPa -- km/h -- -- W/m² -- -- m -- m
08:00 -- °C -- °C -- °C -- % -- hPa -- km/h -- -- W/m² -- -- m -- m
09:00 -- °C -- °C -- °C -- % -- hPa -- km/h -- -- W/m² -- -- m -- m
10:00 -- °C -- °C -- °C -- % -- hPa -- km/h -- -- W/m² -- -- m -- m
11:00 -- °C -- °C -- °C -- % -- hPa -- km/h -- -- W/m² -- -- m -- m
12:00 -- °C -- °C -- °C -- % -- hPa -- km/h -- -- W/m² -- -- m -- m
13:00 -- °C -- °C -- °C -- % -- hPa -- km/h -- -- W/m² -- -- m -- m
14:00 -- °C -- °C -- °C -- % -- hPa -- km/h -- -- W/m² -- -- m -- m
15:00 -- °C -- °C -- °C -- % -- hPa -- km/h -- -- W/m² -- -- m -- m
16:00 -- °C -- °C -- °C -- % -- hPa -- km/h -- -- W/m² -- -- m -- m
17:00 -- °C -- °C -- °C -- % -- hPa -- km/h -- -- W/m² -- -- m -- m
18:00 -- °C -- °C -- °C -- % -- hPa -- km/h -- -- W/m² -- -- m -- m
19:00 -- °C -- °C -- °C -- % -- hPa -- km/h -- -- W/m² -- -- m -- m
20:00 -- °C -- °C -- °C -- % -- hPa -- km/h -- -- W/m² -- -- m -- m
21:00 -- °C -- °C -- °C -- % -- hPa -- km/h -- -- W/m² -- -- m -- m
22:00 -- °C -- °C -- °C -- % -- hPa -- km/h -- -- W/m² -- -- m -- m
23:00 -- °C -- °C -- °C -- % -- hPa -- km/h -- -- W/m² -- -- m -- m


Wetterdaten Verlauf der letzten 24 Stunden

Stundenwerte
 
Uhrzeit Aussen-
temp.
+2 m
Boden-
temp.
+5 cm
ThetaE
 
 
Luft-
feuchte
 
Luft-
druck
 
Wind-
geschw.
 
Wind-
richtung
 
Solar
 
 
UV-I
 
 
Wolken-
untergrenze
 
Schnee-
fallgrenze
 
4:00 (vor 1 Std.) 12,2 °C 7,8 °C 33,3 °C 95 % 1018,6 hPa 0,0 km/h N 0 W/m² 0,0 97,0 m 2020,0 m
3:00 (vor 2 Std.) 12,8 °C 8,3 °C 34,0 °C 95 % 1018,6 hPa 0,0 km/h N 0 W/m² 0,0 118,0 m 2070,0 m
2:00 (vor 3 Std.) 13,2 °C 8,3 °C 35,7 °C 94 % 1018,8 hPa 0,0 km/h N 0 W/m² 0,0 118,0 m 2190,0 m
1:00 (vor 4 Std.) 14,0 °C 9,4 °C 36,9 °C 94 % 1018,8 hPa 0,0 km/h N 0 W/m² 0,0 139,0 m 2270,0 m
0:00 (vor 5 Std.) 14,4 °C 10,0 °C 38,9 °C 91 % 1018,9 hPa 0,0 km/h N 0 W/m² 0,0 204,0 m 2410,0 m
23:00 (vor 6 Std.) 16,1 °C 12,8 °C 40,9 °C 87 % 1018,5 hPa 0,0 km/h N 0 W/m² 0,0 271,0 m 2550,0 m
22:00 (vor 7 Std.) 16,9 °C 12,2 °C 42,6 °C 86 % 1018,2 hPa 0,0 km/h N 0 W/m² 0,0 341,0 m 2670,0 m
21:00 (vor 8 Std.) 20,7 °C 15,6 °C 46,1 °C 67 % 1017,8 hPa 0,0 km/h N 19 W/m² 0,0 856,0 m 2980,0 m
20:00 (vor 9 Std.) 22,3 °C 20,6 °C 46,8 °C 61 % 1017,6 hPa 3,3 km/h N 47 W/m² 0,0 1052,0 m 3050,0 m
19:00 (vor 10 Std.) 22,5 °C 22,8 °C 47,4 °C 59 % 1017,3 hPa 6,5 km/h N-NW 86 W/m² 0,6 1123,0 m 3100,0 m
18:00 (vor 11 Std.) 23,3 °C 27,8 °C 47,3 °C 54 % 1017,2 hPa 6,8 km/h N 346 W/m² 1,4 1239,0 m 3240,0 m
17:00 (vor 12 Std.) 23,2 °C 29,4 °C 49,3 °C 55 % 1017,1 hPa 9,5 km/h N-NW 218 W/m² 1,9 1239,0 m 3240,0 m
16:00 (vor 13 Std.) 23,8 °C 36,1 °C 47,1 °C 58 % 1017,4 hPa 3,1 km/h W-SW 696 W/m² 4,1 1087,0 m 3070,0 m
15:00 (vor 14 Std.) 23,8 °C 36,7 °C 48,9 °C 58 % 1017,2 hPa 6,5 km/h NW 992 W/m² 5,5 1128,0 m 3200,0 m
14:00 (vor 15 Std.) 23,6 °C 37,8 °C 46,6 °C 60 % 1017,3 hPa 6,4 km/h N-NW 1027 W/m² 6,0 920,0 m 3020,0 m
13:00 (vor 16 Std.) 22,0 °C 30,0 °C 48,0 °C 62 % 1017,4 hPa 8,6 km/h W 700 W/m² 5,1 1056,0 m 3130,0 m
12:00 (vor 17 Std.) 21,7 °C 29,4 °C 45,2 °C 65 % 1017,6 hPa 9,1 km/h SW 963 W/m² 4,9 853,0 m 2910,0 m
11:00 (vor 18 Std.) 20,7 °C 30,0 °C 46,1 °C 70 % 1017,3 hPa 7,0 km/h W-SW 699 W/m² 4,1 680,0 m 2940,0 m
10:00 (vor 19 Std.) 19,9 °C 32,2 °C 44,2 °C 75 % 1017,2 hPa 4,0 km/h W-SW 709 W/m² 3,6 621,0 m 2820,0 m
9:00 (vor 20 Std.) 18,3 °C 27,2 °C 43,3 °C 79 % 1017,0 hPa 10,7 km/h W-SW 519 W/m² 2,2 414,0 m 2720,0 m
8:00 (vor 21 Std.) 16,7 °C 25,0 °C 41,2 °C 86 % 1016,3 hPa 6,3 km/h W 357 W/m² 1,1 249,0 m 2560,0 m
7:00 (vor 22 Std.) 15,3 °C 22,8 °C 38,5 °C 91 % 1016,2 hPa 4,6 km/h W 203 W/m² 0,0 161,0 m 2370,0 m
6:00 (vor 23 Std.) 12,9 °C 11,1 °C 32,6 °C 95 % 1015,8 hPa 4,2 km/h SW 38 W/m² 0,0 97,0 m 1970,0 m
5:00 (vor 24 Std.) 12,1 °C 8,9 °C 32,7 °C 95 % 1015,8 hPa 0,3 km/h S-SW 23 W/m² 0,0 97,0 m 1970,0 m